Regional Weather Roundup
Issued by NWS

Home | Current Version | Previous Version | Graphics & Text | Print | Product List | Glossary Off
Versions: 1 2 3 4 5 6 7 8 9 10 11 12 13 14 15 16 17 18 19 20 21 22 23 24 25 26 27 28 29 30 31 32 33 34 35 36 37 38 39 40 41 42 43 44 45 46 47 48 49 50

000
ASUS43 KMPX 020001
RWRMN
WEATHER ROUNDUP FOR MINNESOTA
NATIONAL WEATHER SERVICE TWIN CITIES/CHANHASSEN MN
700 PM CDT WED JUL 01 2015


NOTE: "FAIR" INDICATES FEW OR NO CLOUDS BELOW 12,000 FEET WITH NO
SIGNIFICANT WEATHER AND/OR OBSTRUCTIONS TO VISIBILITY. N/A MEANS
CURRENT SKY AND/OR WEATHER CONDITIONS ARE NOT AVAILABLE.

MNZ060>063-068>070-020100-
   Twin Cities Metro

CITY           SKY/WX    TMP DP  RH WIND       PRES   REMARKS
TWIN CITIES    MOSUNNY   71  53  52 SE6       29.98F
6HR MIN TEMP:  64; 6HR MAX TEMP:  73;

ST PAUL        MOSUNNY   73  54  51 CALM      29.98F
CRYSTAL        MOSUNNY   75  52  44 E6        29.97F
BLAINE         MOSUNNY   75  54  46 E5        29.98F
LAKEVILLE      SUNNY     66  54  63 CALM      30.00S
EDEN PRAIRIE   SUNNY     69  52  54 SW3       29.98F
6HR MIN TEMP:  64; 6HR MAX TEMP:  71;

SOUTH ST PAUL  SUNNY     72  53  51 SE3       29.98S
LAKE ELMO      FAIR      72  52  49 E5        30.00S
$$
MNZ001>005-007-008-013>017-022>024-027-028-020100-
   Northwest Minnesota

CITY           SKY/WX    TMP DP  RH WIND       PRES   REMARKS
BEMIDJI        PTSUNNY   73  60  63 CALM      29.96S
HALLOCK        SUNNY     79  57  47 SW5       29.92S
ROSEAU         MOSUNNY   75  61  60 W3        29.94S
WARROAD        MOSUNNY   75  61  60 W3        29.94S
THIEF RVR FALL SUNNY     75  61  60 SW9       29.95S
CROOKSTON      SUNNY     77  61  57 SW8       29.95S
FOSSTON        MOSUNNY   73  61  64 W10       29.97S
DETROIT LAKES  SUNNY     73  55  53 SW8       29.99S
MOORHEAD       SUNNY     73  57  56 S5        29.96F
PARK RAPIDS    CLOUDY    75  58  55 SW7       29.97S
MAHNOMEN       FAIR      74  59  58 SW9       29.97S
$$
MNZ006-009>011-018-025>026-020100-
   North Central Minnesota

CITY           SKY/WX    TMP DP  RH WIND       PRES   REMARKS
BAUDETTE       SUNNY     77  54  44 NE3       29.94S
FLAG ISLAND    MOSUNNY   72  63  73 CALM      29.92S
INTL FALLS     SUNNY     75  56  51 CALM      29.95R
6HR MIN TEMP:  73; 6HR MAX TEMP:  78;

WASKISH        MOSUNNY   75  55  50 SW3       29.95S
BIG FORK       MOSUNNY  N/A N/A N/A S5        29.97R
LONGVILLE      CLOUDY    73  57  56 S5        29.97S
GRAND RAPIDS   CLOUDY    73  55  53 SW5       29.98S
CRANE LAKE     SUNNY     73  52  46 S1        29.98R
ORR            SUNNY     73  52  46 CALM      29.94S
COOK           SUNNY     73  55  53 CALM      29.97S
WALKER         RAIN      67  61  80 SW5       29.97S
$$
MNZ012-019>021-037-020100-
   Northeast Minnesota

CITY           SKY/WX    TMP DP  RH WIND       PRES   REMARKS
DULUTH         MOSUNNY   68  54  60 SE8       29.99S
6HR MIN TEMP:  68; 6HR MAX TEMP:  72;

ELY            SUNNY     72  52  49 S3        29.98S
HIBBING        MOSUNNY   73  56  54 S3        29.97S
EVELETH        SUNNY    N/A N/A N/A SW3       29.99R
DULUTH HARBOR  SUNNY     64  59  82 NE8       29.99S
TWO HARBORS    SUNNY     68  55  64 E6        29.98S
SILVER BAY     MOSUNNY   64  50  59 CALM      29.99S
GRAND MARAIS     N/A     56  50  80 SW5       30.01R
G MARAIS ARPRT MOSUNNY   59  43  55 S7        30.03S
$$
MNZ029>031-032-039>041-046>048-054>057-064-020100-
   West Central Minnesota

CITY           SKY/WX    TMP DP  RH WIND       PRES   REMARKS
FERGUS FALLS   SUNNY     72  55  56 S6        29.97S
WHEATON        SUNNY     70  54  56 SE9       29.98F
MORRIS         SUNNY     72  54  53 S8        29.98S
ALEXANDRIA     SUNNY     71  56  58 S7        30.01S
ELBOW LAKE     FAIR      71  55  58 S8        29.98S
WADENA           N/A     73  54  49 SW6       29.99R
GLENWOOD       SUNNY     70  57  64 S7        30.00F
APPLETON       SUNNY     72  55  56 S5        29.98S
BENSON         SUNNY     70  54  56 S5        29.99S
ORTONVILLE     SUNNY     70  55  60 SE6       29.97S
MADISON        MOSUNNY   72  54  53 SE8       29.98S
WILLMAR        FAIR      72  55  56 SE6       30.01S
$$
MNZ033>034-036-042>043-049>051-058-059-020100-
   Central Minnesota

CITY           SKY/WX    TMP DP  RH WIND       PRES   REMARKS
ST CLOUD       SUNNY     73  51  46 CALM      29.99S
6HR MIN TEMP:  68; 6HR MAX TEMP:  74;

SAUK CENTRE    FAIR      71  55  58 S3        30.00S
PAYNESVILLE    SUNNY     67  52  58 SE3       30.01S
AITKIN         PTSUNNY   73  57  56 S5        29.97S
PINE RIVER       N/A     73  57  56 S6        30.01R
BRAINERD       MOSUNNY   74  54  49 S8        29.99R
STAPLES        SUNNY     73  54  49 SW6       29.99R
LONG PRAIRIE   FAIR      70  54  56 SE5       30.01S
LITTLE FALLS   MOSUNNY   73  50  43 S5        29.99S
LITCHFIELD     SUNNY     70  52  52 CALM      30.01S
BUFFALO        SUNNY     70  51  50 S5        30.01R
MAPLE LAKE     SUNNY     71  56  59 CALM      30.01S
$$
MNZ037-044-045-052-053-020100-
   East Central Minnesota

CITY           SKY/WX    TMP DP  RH WIND       PRES   REMARKS
PRINCETON      SUNNY     73  54  49 CALM      29.99S
MORA           SUNNY     70  50  49 S3        30.00F
CAMBRIDGE      SUNNY     75  55  50 N5        29.97F
RUSH CITY      SUNNY     73  54  51 CALM      29.99S
MOOSE LAKE     SUNNY     72  61  68 CALM      29.97S
HINCKLEY       FAIR      73  54  49 CALM      29.99S
CLOQUET        MOSUNNY   70  54  56 SE5       29.99R
MCGREGOR       SUNNY     72  55  56 W5        29.99S
$$
MNZ071>073-080-081-089-090-097-098-020100-
   Southwest Minnesota

CITY           SKY/WX    TMP DP  RH WIND       PRES   REMARKS
MONTEVIDEO     SUNNY     70  55  60 S6        30.00S
GRANITE FALLS  MOSUNNY   68  53  58 CALM      30.01S
CANBY          CLOUDY    69  55  61 E8        29.99S
MARSHALL       SUNNY     70  50  49 SE8       29.97S
REDWOOD FALLS  SUNNY     69  52  54 E7        29.98F
OLIVIA         SUNNY     68  52  56 SE6       29.99S
PIPESTONE      MOSUNNY   72  50  46 SE7       29.98S
WINDOM         MOSUNNY   68  54  60 CALM      29.99S
WORTHINGTON    CLOUDY    66  54  63 E13       29.98S
JACKSON        SUNNY     68  52  56 E9        29.99S
TRACY          PTSUNNY   70  55  58 E8        29.99S
SLAYTON        CLOUDY    67  55  65 E7        30.00S
$$
MNZ065>067-074>077-082>085-091>093-020100-
   South Central Minnesota

CITY           SKY/WX    TMP DP  RH WIND       PRES   REMARKS
MANKATO        MOSUNNY   66  52  59 E5        30.00S
NEW ULM        SUNNY     66  52  59 E7        29.99S
ST JAMES       SUNNY     70  57  64 NE8       29.99S
FAIRMONT       SUNNY     66  52  59 E7        29.98S
GLENCOE        SUNNY     70  53  56 E3        30.00S
FARIBAULT      MOSUNNY   66  48  52 E3        30.00F
OWATONNA       MOSUNNY   64  48  55 NE6       30.00F
WASECA         MOSUNNY   64  52  63 E6        30.01S
ALBERT LEA     MOSUNNY   64  52  63 E8        29.99S
$$
MNZ078>079-086>088-094>096-020100-
   Southeast Minnesota

CITY           SKY/WX    TMP DP  RH WIND       PRES   REMARKS
ROCHESTER      MOSUNNY   64  52  64 NE5       30.01F
6HR MIN TEMP:  60; 6HR MAX TEMP:  65;

RED WING       SUNNY     72  52  49 CALM      29.98S
DODGE CENTER   MOSUNNY   64  52  63 NE3       30.00F
WINONA         MOSUNNY   70  54  56 CALM      29.99S
AUSTIN         PTSUNNY   63  52  67 NE6       30.00F
PRESTON        PTSUNNY   60  53  78 CALM      30.01S
$$
ABBREVIATIONS USED IN REMARKS
   TC - TEMPERATURES IN CELSIUS
  WCI - WIND CHILL INDEX
   HX - HEAT INDEX
  VSB - VISIBILITY
$$



USA.gov is the U.S. government's official web portal to all federal, state and local government web resources and services.